Wind_Speed
25 26 25 23 24 25 26 27 29 31 33 35 37 39 36 35 34 31 29 30 31 30 31 32 32 33 35 36 36 36 35 37 36 38 38 38 43 41 39 38 37 43 44 51 57 54 61 50 51 45 48 48 43 46
25 24 22 23 24 24 25 27 29 31 33 34 36 35 31 29 26 27 30 30 29 29 31 30 30 33 34 34 36 34 35 31 30 31 33 34 37 39 34 36 39 40 46 46 51 56 60 49 50 52 57 51 45 44
23 22 22 23 23 24 26 28 29 30 32 32 33 32 29 26 26 29 28 27 26 26 28 28 27 28 28 29 30 28 28 32 33 33 31 31 31 30 35 38 37 44 46 55 35 42 44 58 54 54 51 53 53 53
21 21 23 23 23 25 26 27 29 30 31 31 31 31 29 26 27 27 25 25 25 23 21 25 23 25 27 28 29 30 28 33 33 34 32 30 30 30 31 34 37 43 46 40 49 55 51 46 59 52 38 50 58 52
22 22 23 24 25 26 27 28 30 30 30 31 31 31 29 27 27 27 25 23 23 21 17 23 23 23 23 25 29 31 29 29 30 33 35 34 34 36 36 36 32 35 41 27 25 28 34 45 58 59 59 26 47 52
22 23 24 25 27 28 29 30 31 30 30 31 32 29 27 26 27 26 23 23 23 22 19 18 19 21 23 22 22 22 21 19 21 24 28 30 31 35 34 33 32 34 44 51 47 35 30 33 43 40 48 52 50 49
24 25 25 26 27 29 29 31 32 31 31 32 30 29 27 26 25 24 22 21 20 20 18 17 15 16 17 19 19 18 20 20 19 21 22 24 28 30 33 34 27 31 38 44 44 44 47 43 33 44 36 38 49 60
27 28 28 30 31 32 32 33 32 32 33 32 31 30 27 24 23 23 21 20 20 18 17 17 17 18 15 13 15 20 22 23 25 24 21 22 24 27 31 24 24 31 35 39 39 39 43 38 39 22 49 55 35 48
28 29 31 32 32 32 31 32 32 33 34 33 30 26 24 23 23 21 19 18 18 17 16 15 15 13 13 13 14 16 18 23 27 25 26 26 24 19 20 21 26 28 32 37 37 39 28 40 34 42 39 42 23 21
27 27 28 29 28 29 30 30 30 31 29 25 21 22 21 23 22 20 18 17 17 17 17 18 19 19 18 19 18 16 14 17 20 20 24 24 21 25 22 22 24 28 29 28 25 24 29 23 28 35 33 32 30 41
25 25 26 26 27 28 28 28 27 24 21 20 20 19 19 16 16 16 16 18 19 20 20 20 21 21 21 20 19 15 14 13 9 11 18 17 13 20 20 21 22 22 22 24 24 22 30 28 31 35 28 31 24 31
21 24 24 25 26 27 25 23 21 20 22 17 11 9 12 16 16 17 18 20 19 18 18 18 18 19 19 20 17 15 12 13 13 14 14 11 17 17 16 18 20 21 22 22 22 25 30 34 37 37 33 38 45 42
20 22 23 24 25 23 21 20 19 13 5 9 13 16 16 16 14 13 13 18 21 22 22 21 22 22 19 18 19 13 15 15 16 12 9 5 8 15 16 12 9 13 19 20 21 22 29 33 33 33 33 27 21 28
19 21 21 19 17 16 16 9 4 8 11 13 13 12 12 13 14 17 19 21 23 23 21 20 20 21 22 19 16 13 14 12 12 10 12 10 12 9 7 4 4 5 3 7 7 13 22 26 28 33 33 34 24 17
17 14 13 13 12 9 6 7 9 11 11 12 12 11 12 15 19 20 22 24 27 27 27 27 26 24 20 20 20 15 12 10 13 10 9 9 4 10 10 5 1 4 8 10 13 9 2 21 28 21 24 28 22 24
11 10 10 9 6 6 7 8 10 10 10 11 12 14 17 18 18 21 25 25 25 23 23 23 22 23 20 20 19 17 9 14 14 11 12 14 8 5 6 13 9 5 2 8 13 10 5 16 28 16 17 22 22 24
9 8 8 6 5 5 7 8 8 9 11 13 14 16 16 16 17 20 21 21 20 19 17 16 18 20 19 18 17 18 13 11 14 11 9 9 10 9 4 10 10 6 5 3 6 15 16 15 18 22 21 21 22 23
7 8 7 6 6 6 6 8 9 10 10 12 13 13 15 17 17 19 20 19 17 16 15 13 15 16 16 16 14 14 14 10 11 12 11 10 9 13 12 11 11 12 12 10 10 9 11 15 21 27 30 33 27 31
7 7 6 5 5 6 7 8 8 9 10 11 13 13 14 14 14 14 17 18 16 14 12 9 7 11 7 12 12 12 14 14 15 16 13 12 10 8 12 16 18 18 18 16 16 15 13 5 14 20 29 27 25 26
8 7 7 6 6 6 7 7 8 7 9 11 11 12 15 16 15 21 16 17 14 12 10 8 8 9 7 10 10 12 14 16 17 16 18 18 17 14 14 14 15 13 13 14 14 14 18 19 16 15 18 19 19 12
7 7 7 7 7 7 6 7 7 7 9 11 11 11 13 11 15 14 14 15 14 14 12 10 7 7 8 9 10 11 13 15 16 17 18 17 18 19 19 17 16 15 15 16 14 16 16 16 18 17 23 20 19 17
5 5 5 6 6 7 7 8 7 7 10 11 10 10 10 11 11 12 12 13 12 14 14 12 11 9 7 8 9 10 12 14 15 16 17 18 18 18 19 20 22 20 19 19 18 20 19 16 18 21 24 23 24 23
4 4 3 3 5 6 5 6 6 8 10 10 10 8 8 9 15 15 13 14 14 16 16 13 11 10 9 8 7 7 7 7 8 9 11 15 18 20 20 21 21 21 23 24 23 24 25 24 22 20 24 27 26 26
1 1 2 1 2 1 3 5 7 9 10 10 9 8 7 9 11 12 13 14 14 16 19 16 11 9 7 7 7 7 7 6 5 5 5 4 10 15 17 19 20 21 21 20 20 22 21 19 20 20 22 24 27 27
2 1 1 1 3 3 5 6 7 9 9 9 10 10 8 9 10 10 12 15 16 15 15 17 15 10 9 10 9 7 6 6 5 5 6 4 3 4 6 10 16 19 18 19 20 18 22 18 20 21 21 22 23 23
4 4 2 2 4 5 6 7 8 8 10 10 7 6 12 10 10 10 6 17 18 17 14 12 14 11 8 9 10 11 8 4 2 4 5 5 6 6 7 7 8 13 17 20 20 18 16 16 17 18 19 21 24 25
6 5 3 4 5 6 8 9 10 10 11 10 11 15 13 10 13 16 14 16 16 16 13 10 10 11 9 7 9 10 7 3 3 4 4 5 4 5 7 8 9 11 11 13 14 15 15 16 17 18 20 19 22 25
6 6 6 5 5 5 6 8 8 9 11 6 10 14 12 12 12 14 14 14 14 12 10 8 8 8 8 7 10 9 8 9 12 9 8 9 8 6 6 7 7 8 8 9 12 14 16 17 21 24 25 26 27 25
5 5 4 5 4 4 4 5 8 13 12 12 8 8 10 13 12 12 11 11 11 10 9 8 7 7 7 7 9 13 10 9 9 9 6 9 9 8 5 5 5 6 7 9 9 12 15 16 20 23 25 25 17 25
5 5 5 4 4 3 6 9 6 7 10 11 11 10 11 10 9 10 10 10 10 10 11 10 8 7 8 9 13 13 16 17 15 15 16 16 16 14 12 10 8 8 8 8 8 10 12 14 18 20 20 16 11 21
6 7 7 7 7 6 7 9 9 9 8 7 8 11 9 8 10 10 10 10 10 10 10 9 9 10 9 11 11 11 11 12 12 15 16 15 14 15 16 16 15 15 14 12 10 9 8 8 12 15 13 8 9 11
8 9 11 13 14 11 10 11 10 10 8 4 3 2 3 7 15 14 9 9 9 10 10 11 10 10 10 12 12 12 12 12 13 14 14 14 16 17 16 17 18 19 19 20 20 19 17 13 11 13 14 9 5 3
9 9 10 12 9 9 12 14 15 12 6 6 3 1 1 2 2 3 7 8 8 9 10 11 10 12 12 11 10 11 11 12 13 14 15 15 16 16 17 17 16 16 16 17 19 20 23 24 22 18 15 14 15 12
Wind_Direction
269 271 274 279 284 292 297 301 304 306 306 308 308 308 303 303 303 303 305 302 294 282 275 271 269 266 264 264 267 273 276 272 263 263 266 262 258 254 252 247 244 234 241 242 241 244 252 250 248 227 235 221 223 222
268 270 274 281 287 292 297 299 303 305 307 310 311 308 303 303 303 304 303 300 293 285 279 275 272 266 265 265 266 267 268 266 262 260 261 259 259 256 248 245 230 245 236 237 245 244 231 237 225 224 231 228 228 221
260 268 277 281 288 293 296 299 301 305 308 312 312 309 303 297 301 307 305 303 299 289 279 277 274 271 267 262 262 267 268 265 259 257 262 261 260 254 249 241 238 235 237 240 259 236 231 225 224 234 237 234 234 231
265 271 275 281 286 294 298 300 301 304 306 308 312 310 302 295 302 307 309 308 310 305 293 280 272 265 264 262 264 268 263 265 257 254 254 260 261 257 252 248 247 236 240 242 252 246 243 232 240 239 235 237 235 235
265 271 276 279 287 293 300 303 300 302 306 302 305 311 302 292 300 305 306 309 313 314 303 285 279 270 266 267 268 267 270 266 254 251 254 257 259 259 257 254 248 241 241 248 250 240 235 231 223 222 222 217 216 225
270 276 279 283 289 295 299 301 302 301 302 303 302 305 301 295 299 302 304 311 313 315 318 300 290 280 278 274 270 271 261 256 251 256 260 261 258 254 251 248 246 238 243 253 258 250 231 237 220 227 225 239 247 245
273 276 281 285 288 292 297 300 302 299 300 301 299 298 292 295 295 299 296 300 307 311 312 314 311 302 289 277 275 269 259 246 259 264 263 258 257 257 255 249 248 245 244 242 245 251 252 250 253 238 234 234 240 238
274 277 280 284 288 292 295 298 300 299 299 297 294 293 285 289 291 296 290 294 300 303 305 309 315 324 317 300 280 268 256 252 256 252 260 260 262 263 258 262 251 244 242 243 236 249 243 242 224 224 234 238 233 224
278 280 283 287 290 293 295 299 300 301 300 296 290 285 280 282 290 291 282 285 292 297 297 293 308 302 320 335 325 308 281 264 257 255 261 263 265 273 267 247 242 242 240 245 234 236 262 243 249 244 230 210 230 264
282 284 286 289 291 295 298 301 300 301 301 294 286 281 279 282 286 284 281 279 284 291 297 291 289 291 293 303 312 324 323 292 269 254 263 269 268 267 258 248 247 240 240 247 249 235 229 240 240 243 246 242 255 270
282 285 289 291 295 298 300 300 298 299 299 293 283 276 280 287 285 288 289 285 285 289 290 291 291 291 288 299 310 297 310 339 318 276 280 277 263 253 250 248 250 250 246 244 241 225 222 235 232 238 240 234 243 198
287 289 290 294 297 299 300 299 299 298 297 292 289 297 295 288 291 293 294 295 295 291 290 292 294 296 294 294 310 296 289 315 323 313 308 277 242 251 250 256 258 256 252 247 243 232 219 225 222 223 233 245 237 265
284 288 293 297 298 298 300 300 300 300 312 305 294 293 299 297 297 300 292 291 295 298 297 296 290 289 288 292 292 297 283 294 309 318 305 322 347 252 250 255 267 254 245 249 248 239 230 231 235 229 223 221 200 222
286 292 297 299 300 302 301 293 276 296 307 304 309 307 306 306 310 304 301 298 293 294 292 291 292 285 283 285 274 285 283 284 293 292 298 303 284 258 211 223 284 260 174 232 221 237 233 227 242 232 229 208 226 229
290 294 298 299 299 293 281 293 306 312 313 314 312 314 317 314 308 309 307 303 297 293 287 281 278 279 281 273 271 277 276 271 263 268 288 321 289 211 192 188 61 218 216 227 238 262 91 180 157 170 197 199 203 221
282 291 294 293 285 290 300 308 313 317 319 321 317 317 319 314 312 309 309 309 309 302 293 281 270 266 269 267 261 261 270 272 267 282 288 281 284 248 272 188 167 152 153 233 236 224 141 165 178 188 205 214 225 231
280 286 287 276 276 293 309 312 315 318 321 323 329 321 319 320 313 313 317 321 318 315 305 284 262 256 259 258 259 265 248 249 247 263 279 286 255 250 206 200 196 189 213 219 228 231 237 255 260 256 246 231 224 226
263 274 261 253 275 296 306 306 305 312 319 324 323 329 332 330 327 330 331 329 325 324 311 286 277 274 263 256 259 263 263 264 261 261 259 261 251 234 214 194 222 223 229 234 236 241 240 241 243 246 251 248 236 246
251 250 247 263 278 295 304 303 305 317 319 322 329 336 335 329 336 342 345 336 332 331 329 303 276 270 265 280 267 265 269 266 260 259 256 253 240 234 232 222 233 250 255 246 238 222 219 241 226 220 231 227 227 230
238 239 248 258 271 294 307 311 311 312 322 331 330 343 341 342 322 288 337 337 341 339 332 322 293 290 285 279 277 270 269 265 260 256 252 248 247 242 235 240 239 233 232 235 230 225 226 226 229 221 205 203 205 222
240 249 263 272 273 276 290 317 316 309 323 326 338 346 350 343 347 349 346 345 354 348 347 329 328 292 279 271 270 268 263 258 254 253 253 251 249 247 243 238 236 236 235 231 228 226 237 244 245 244 220 228 212 202
248 269 288 278 261 266 278 310 317 318 322 326 338 340 354 359 348 347 352 359 356 346 339 337 331 327 296 277 276 274 268 262 258 253 250 249 249 248 247 246 245 245 246 243 229 225 242 243 247 242 241 241 243 250
267 266 287 299 286 274 275 292 302 315 319 331 336 347 344 345 345 356 360 359 2 358 353 344 330 324 316 309 302 304 300 290 275 261 251 248 247 247 246 247 248 247 247 248 248 248 255 258 263 253 247 247 245 245
179 188 326 351 45 340 285 291 306 317 326 333 338 336 346 325 320 341 355 2 356 358 3 3 349 346 345 339 329 315 296 293 279 291 319 303 254 249 250 248 247 248 251 251 254 255 254 255 250 257 257 252 249 251
227 247 1 224 270 317 317 317 324 332 335 338 342 346 338 335 331 335 359 353 351 347 348 0 0 4 12 14 3 346 326 299 277 261 286 294 280 274 267 256 247 245 248 246 251 261 259 265 263 261 253 251 248 246
205 203 226 260 292 312 316 332 339 326 328 332 358 316 324 322 312 291 287 350 345 343 339 344 358 357 353 6 14 8 10 14 350 282 263 260 267 272 272 266 257 251 248 255 266 271 271 269 266 264 266 265 263 261
191 202 236 281 299 317 323 328 342 342 347 7 5 341 337 334 333 331 350 341 336 339 340 340 347 1 4 14 9 1 359 360 344 343 341 327 312 290 282 275 269 263 262 262 258 259 257 258 263 267 268 269 265 260
226 238 254 269 289 313 332 347 1 10 8 18 15 355 5 356 343 336 336 340 343 347 353 1 2 10 18 25 17 27 45 55 47 35 28 18 359 349 323 306 295 286 277 271 277 284 282 286 286 288 290 294 295 273
224 231 239 268 290 330 343 359 12 337 4 354 334 309 0 360 348 345 351 354 360 6 14 20 35 43 40 40 44 55 51 59 16 19 40 346 350 353 360 343 330 313 301 290 294 291 293 297 300 302 304 309 288 209
238 252 262 277 289 331 333 323 2 338 351 348 339 348 350 353 350 360 8 14 20 25 31 40 53 59 73 81 78 67 62 56 56 54 53 49 43 36 24 14 5 344 331 320 313 308 305 303 308 313 310 302 230 223
248 257 256 244 248 255 258 228 316 311 318 350 359 10 350 12 12 9 15 22 27 37 44 52 65 70 74 71 69 54 44 41 37 38 39 40 43 44 45 43 43 39 31 24 15 1 341 327 327 339 341 324 260 241
264 263 261 257 260 262 265 274 280 279 282 307 335 339 73 355 337 341 13 26 29 33 45 53 56 62 58 55 57 52 53 51 45 42 42 41 42 43 42 40 42 44 43 43 43 43 40 33 25 27 30 32 64 154
305 356 35 26 353 316 251 254 262 268 234 198 246 329 340 89 120 63 39 38 36 38 44 51 53 62 62 58 53 55 57 55 51 48 45 42 38 37 35 34 34 35 37 38 41 45 50 52 48 47 52 59 70 90
Height
5777 5777 5776 5775 5774 5772 5770 5767 5765 5762 5759 5754 5750 5746 5741 5737 5734 5729 5725 5722 5719 5718 5716 5714 5715 5715 5714 5714 5715 5716 5718 5717 5718 5718 5720 5722 5722 5726 5728 5733 5740 5744 5746 5750 5757 5758 5763 5783 5782 5783 5772 5780 5790 5796
5769 5769 5767 5767 5765 5764 5761 5759 5757 5754 5750 5745 5741 5737 5733 5729 5726 5722 5718 5714 5710 5708 5707 5705 5704 5703 5703 5704 5704 5705 5705 5706 5707 5707 5709 5710 5712 5715 5718 5720 5728 5728 5733 5734 5735 5741 5750 5759 5752 5754 5760 5774 5778 5780
5760 5761 5760 5759 5757 5756 5754 5751 5749 5746 5742 5737 5733 5729 5725 5722 5719 5715 5710 5706 5702 5699 5697 5695 5694 5693 5693 5693 5694 5696 5696 5696 5697 5697 5699 5700 5701 5703 5705 5710 5714 5718 5718 5715 5710 5730 5735 5738 5735 5750 5757 5760 5766 5770
5753 5752 5753 5751 5751 5748 5746 5744 5741 5738 5734 5729 5726 5721 5717 5714 5711 5708 5703 5699 5695 5692 5689 5686 5685 5684 5684 5685 5686 5686 5686 5684 5687 5688 5689 5690 5691 5694 5695 5697 5701 5706 5708 5710 5707 5713 5719 5725 5729 5741 5740 5738 5750 5763
5746 5746 5745 5744 5742 5741 5738 5736 5733 5729 5725 5722 5718 5713 5709 5707 5704 5701 5697 5693 5689 5687 5684 5679 5678 5678 5677 5677 5677 5676 5676 5675 5676 5677 5678 5680 5681 5682 5684 5687 5692 5695 5696 5691 5677 5692 5702 5713 5713 5720 5729 5728 5725 5743
5739 5738 5738 5736 5735 5733 5730 5728 5724 5720 5717 5713 5709 5705 5702 5700 5697 5694 5691 5687 5684 5680 5678 5675 5673 5671 5670 5669 5668 5667 5667 5667 5668 5669 5671 5671 5672 5670 5670 5674 5680 5683 5680 5676 5679 5684 5691 5698 5702 5707 5719 5722 5725 5733
5731 5731 5730 5728 5727 5725 5722 5719 5715 5712 5708 5705 5701 5698 5696 5693 5690 5688 5686 5683 5679 5677 5674 5672 5669 5667 5665 5663 5662 5661 5661 5661 5662 5662 5662 5661 5663 5662 5662 5664 5671 5672 5672 5673 5676 5678 5684 5690 5694 5699 5702 5708 5712 5717
5724 5723 5722 5721 5718 5716 5713 5709 5706 5702 5699 5695 5692 5690 5688 5686 5684 5682 5679 5677 5674 5672 5670 5668 5665 5663 5660 5658 5657 5656 5656 5656 5655 5656 5656 5656 5656 5655 5653 5661 5661 5661 5662 5662 5669 5673 5677 5680 5685 5686 5690 5689 5693 5681
5716 5715 5714 5712 5709 5706 5703 5700 5697 5693 5689 5685 5683 5682 5681 5679 5677 5675 5673 5672 5670 5669 5666 5664 5662 5661 5658 5656 5654 5652 5649 5648 5648 5650 5650 5649 5649 5649 5650 5650 5650 5652 5653 5654 5662 5666 5666 5668 5671 5674 5675 5683 5682 5680
5708 5706 5705 5703 5700 5698 5695 5692 5688 5684 5680 5677 5676 5676 5674 5672 5670 5669 5667 5666 5665 5663 5661 5660 5658 5657 5655 5653 5650 5648 5644 5641 5640 5643 5641 5641 5643 5642 5642 5642 5643 5644 5647 5650 5653 5657 5659 5657 5658 5661 5666 5679 5671 5678
5700 5698 5697 5695 5692 5690 5687 5683 5680 5676 5674 5672 5671 5670 5668 5667 5665 5663 5662 5661 5660 5659 5657 5655 5653 5651 5650 5649 5646 5644 5642 5639 5637 5638 5636 5636 5636 5634 5634 5636 5637 5639 5641 5643 5645 5649 5650 5651 5654 5653 5661 5667 5661 5663
5692 5691 5690 5687 5685 5682 5678 5676 5673 5671 5668 5666 5665 5664 5664 5663 5661 5660 5658 5656 5654 5653 5651 5650 5649 5647 5646 5645 5643 5640 5638 5637 5636 5634 5631 5630 5630 5629 5631 5631 5632 5633 5635 5636 5638 5639 5644 5645 5649 5656 5660 5657 5660 5663
5686 5685 5683 5680 5677 5675 5672 5670 5668 5666 5665 5664 5663 5662 5661 5658 5657 5656 5654 5652 5649 5647 5646 5646 5644 5642 5642 5641 5640 5637 5636 5635 5633 5631 5629 5629 5627 5626 5627 5629 5629 5629 5629 5630 5631 5634 5635 5640 5644 5652 5658 5662 5667 5670
5680 5678 5676 5673 5672 5670 5668 5666 5665 5664 5663 5662 5660 5659 5657 5655 5653 5652 5650 5648 5646 5643 5641 5640 5639 5638 5636 5635 5635 5634 5633 5632 5630 5629 5627 5626 5625 5624 5625 5627 5628 5627 5629 5628 5629 5629 5629 5632 5634 5638 5648 5654 5659 5664
5674 5672 5671 5669 5668 5666 5665 5664 5664 5662 5661 5659 5658 5656 5655 5653 5650 5648 5645 5642 5639 5637 5634 5633 5632 5632 5630 5631 5631 5631 5628 5627 5627 5627 5626 5624 5623 5624 5626 5627 5627 5628 5630 5630 5627 5626 5626 5630 5635 5638 5645 5650 5654 5659
5669 5668 5667 5666 5665 5664 5663 5663 5662 5660 5659 5657 5656 5654 5652 5650 5646 5644 5640 5636 5632 5629 5626 5625 5624 5625 5625 5624 5625 5625 5624 5622 5623 5625 5623 5623 5624 5624 5626 5627 5628 5628 5631 5631 5629 5631 5630 5635 5635 5639 5644 5649 5654 5657
5665 5665 5665 5664 5663 5662 5662 5661 5659 5658 5656 5655 5653 5651 5648 5645 5642 5639 5635 5631 5627 5623 5620 5618 5618 5618 5618 5618 5619 5618 5618 5618 5619 5621 5621 5621 5622 5623 5624 5627 5628 5630 5631 5633 5633 5633 5634 5637 5639 5642 5646 5649 5653 5656
5663 5663 5662 5662 5661 5660 5660 5658 5657 5656 5654 5653 5651 5649 5645 5642 5638 5635 5631 5627 5624 5620 5617 5615 5614 5613 5614 5615 5615 5614 5614 5615 5616 5618 5619 5620 5620 5621 5623 5625 5627 5629 5630 5631 5632 5633 5634 5637 5640 5641 5643 5645 5649 5652
5661 5661 5660 5660 5659 5658 5657 5657 5656 5654 5653 5651 5649 5646 5643 5638 5636 5632 5628 5625 5621 5618 5615 5612 5611 5610 5611 5611 5610 5610 5611 5612 5614 5615 5617 5618 5619 5619 5620 5622 5624 5626 5627 5629 5630 5632 5634 5636 5636 5636 5636 5640 5644 5646
5658 5658 5658 5658 5657 5656 5656 5655 5654 5652 5652 5649 5647 5644 5640 5637 5632 5626 5627 5624 5621 5617 5615 5612 5610 5609 5609 5608 5608 5608 5608 5608 5610 5612 5612 5614 5615 5617 5618 5620 5621 5622 5624 5625 5627 5628 5630 5630 5631 5633 5635 5636 5639 5643
5656 5656 5656 5655 5655 5654 5654 5653 5652 5651 5649 5648 5645 5642 5640 5636 5631 5629 5626 5623 5620 5617 5614 5611 5610 5608 5607 5607 5606 5605 5605 5606 5606 5607 5608 5609 5610 5612 5613 5615 5617 5618 5620 5622 5623 5624 5625 5627 5628 5629 5631 5633 5635 5637
5654 5654 5654 5653 5653 5652 5652 5652 5651 5649 5648 5646 5643 5642 5639 5636 5634 5631 5627 5623 5620 5616 5613 5610 5608 5607 5605 5604 5603 5602 5601 5601 5601 5602 5603 5603 5604 5606 5607 5609 5611 5612 5614 5616 5618 5619 5620 5621 5623 5626 5627 5629 5630 5633
5652 5653 5652 5651 5651 5651 5652 5650 5649 5647 5646 5644 5642 5640 5639 5636 5634 5630 5627 5623 5620 5617 5613 5609 5606 5604 5603 5602 5600 5599 5598 5597 5597 5597 5598 5598 5599 5600 5601 5603 5604 5606 5608 5609 5611 5612 5613 5615 5616 5619 5620 5623 5624 5626
5652 5652 5651 5651 5650 5650 5649 5648 5647 5646 5644 5642 5640 5639 5636 5633 5634 5629 5626 5623 5620 5617 5613 5610 5606 5603 5602 5600 5599 5598 5596 5596 5595 5595 5594 5594 5594 5595 5596 5597 5598 5600 5601 5603 5604 5605 5607 5609 5610 5612 5613 5615 5617 5618
5653 5653 5652 5651 5650 5650 5649 5648 5647 5645 5643 5641 5639 5637 5635 5633 5631 5628 5624 5623 5620 5617 5614 5611 5607 5604 5602 5600 5599 5597 5595 5595 5594 5593 5593 5593 5592 5592 5593 5592 5593 5595 5597 5598 5599 5600 5601 5603 5604 5605 5606 5607 5609 5611
5650 5651 5651 5650 5650 5649 5648 5646 5645 5645 5642 5640 5639 5637 5635 5632 5629 5625 5620 5620 5620 5617 5614 5611 5608 5605 5603 5601 5599 5596 5595 5593 5593 5593 5592 5592 5592 5592 5591 5591 5591 5592 5593 5594 5593 5594 5596 5596 5597 5598 5599 5600 5600 5601
5650 5650 5650 5650 5649 5648 5647 5646 5645 5644 5642 5640 5639 5636 5633 5631 5629 5625 5622 5620 5619 5617 5614 5611 5609 5606 5604 5602 5600 5597 5595 5595 5593 5592 5591 5591 5590 5590 5590 5589 5589 5588 5589 5589 5589 5589 5590 5589 5589 5589 5590 5591 5591 5591
5650 5650 5650 5650 5649 5649 5647 5646 5645 5643 5641 5639 5638 5637 5634 5632 5630 5627 5624 5622 5620 5617 5614 5611 5609 5607 5605 5603 5601 5598 5597 5596 5594 5594 5593 5592 5591 5589 5588 5587 5587 5586 5586 5586 5585 5585 5584 5583 5582 5581 5580 5578 5577 5579
5649 5649 5649 5649 5648 5648 5647 5646 5645 5644 5642 5640 5639 5638 5634 5631 5630 5628 5626 5623 5620 5617 5615 5612 5610 5609 5607 5606 5604 5601 5599 5598 5599 5596 5598 5594 5591 5590 5588 5587 5585 5584 5583 5582 5582 5581 5579 5578 5575 5572 5570 5568 5566 5567
5649 5649 5649 5648 5648 5648 5647 5646 5645 5644 5643 5641 5638 5639 5634 5632 5631 5629 5627 5624 5622 5619 5617 5614 5612 5611 5609 5609 5607 5606 5603 5602 5601 5600 5598 5595 5593 5591 5589 5587 5585 5583 5581 5580 5579 5577 5575 5573 5570 5567 5563 5561 5561 5560
5646 5645 5646 5646 5646 5647 5646 5639 5643 5644 5643 5642 5640 5641 5637 5635 5632 5631 5629 5626 5624 5622 5620 5618 5616 5614 5613 5611 5610 5609 5608 5607 5605 5602 5601 5599 5598 5595 5593 5590 5587 5585 5582 5580 5577 5575 5573 5571 5568 5563 5559 5556 5554 5554
5645 5645 5644 5644 5644 5644 5644 5643 5642 5642 5642 5642 5641 5641 5641 5637 5636 5634 5631 5629 5627 5625 5623 5621 5620 5618 5617 5615 5613 5612 5611 5609 5608 5606 5605 5603 5600 5598 5596 5594 5592 5589 5587 5584 5580 5577 5573 5570 5568 5564 5560 5556 5553 5552
5639 5639 5641 5639 5639 5637 5638 5639 5638 5639 5640 5641 5640 5640 5639 5638 5636 5635 5633 5631 5630 5628 5626 5625 5623 5621 5620 5618 5617 5616 5614 5613 5611 5610 5608 5606 5604 5602 5600 5598 5596 5594 5591 5588 5585 5582 5578 5575 5572 5568 5565 5562 5560 5559